Home   Weather   Scarborough   Past weeks

Flag for Trinidad and Tobago Past Weather in Scarborough, Trinidad and Tobago — Yesterday and Last 2 Weeks

Now
77 °F

Passing clouds.


Feels Like: 78 °F
Forecast: 75 / 82 °F
Wind: No wind

Location: Crown Pt./ Scarborou

Current Time: Jan 22, 2017 at 10:36:10 pm

Latest Report: Jan 22, 2017 at 9:00 pm


Visibility: N/A

Pressure: 29.95 "Hg

Humidity: 83%

Dew Point: 72 °F

Location of ScarboroughLocation

Past Weather in Scarborough — Graph

°F

Scarborough Temperature Yesterday

Maximum temperature yesterday: 84 °F (at 3:00 pm)
Minimum temperature yesterday: 75 °F (at 12:00 am)
Average temperature yesterday: 79 °F

High & Low Weather Summary for the Past Weeks

 TemperatureHumidityPressure
High86 °F (Jan 8, 2:00 pm)94% (Jan 10, 8:00 pm)30.04 "Hg (Jan 10, 8:00 pm)
Low72 °F (Jan 10, 4:00 am)19% (Jan 11, 12:00 pm)29.86 "Hg (Jan 10, 3:00 am)
Average78 °F78%29.92 "Hg
* Reported Jan 7 9:00 pm — Jan 22 9:00 pm, Scarborough, Weather by CustomWeather, © 2017

Note: Actual official high and low records may vary slightly from our data, if they occured in-between our weather recording intervals... More about our weather records

Advertising

Scarborough Weather History for the Previous 24 Hours

Scroll right to see more
 ConditionsComfort  
Time TempWeatherWind HumidityBarometerVisibility
9:00 pm
Sun, Jan 22
77 °FPassing clouds.No wind83%29.95 "HgN/A
8:00 pm77 °FPassing clouds.No wind89%29.92 "HgN/A
7:00 pm77 °FPassing clouds.6 mph83%29.92 "HgN/A
6:00 pm79 °FPassing clouds.6 mph84%29.89 "HgN/A
5:00 pm79 °FPassing clouds.6 mph84%29.89 "HgN/A
4:00 pm81 °FPassing clouds.8 mph79%29.89 "HgN/A
3:00 pm81 °FScattered clouds.5 mph79%29.89 "HgN/A
2:00 pm79 °FLight rain. Partly sunny.No wind89%29.89 "HgN/A
1:00 pm75 °FScattered showers. Broken clouds.6 mph94%29.92 "HgN/A
12:30 pm75 °FScattered showers. Broken clouds.6 mph89%29.95 "Hg4 mi
12:00 pm75 °FRain showers. Partly sunny.12 mph89%29.98 "Hg1 mi
11:00 am75 °FScattered showers. Broken clouds.6 mph89%29.98 "Hg6 mi
10:33 am73 °FScattered showers. Broken clouds.8 mph89%29.98 "Hg5 mi
9:00 am73 °FLight rain. Broken clouds.9 mph94%29.98 "Hg5 mi
8:00 am73 °FRain showers. Partly sunny.13 mph89%29.95 "Hg3 mi
7:23 am75 °FRain showers. Partly sunny.12 mph89%29.95 "Hg2 mi
7:00 am75 °FScattered showers. Scattered clouds.No wind89%29.92 "HgN/A
6:00 am75 °FScattered showers. Passing clouds.8 mph89%29.89 "HgN/A
5:00 am75 °FScattered showers. Passing clouds.12 mph83%29.89 "HgN/A
4:00 am75 °FPassing clouds.3 mph83%29.89 "HgN/A
3:00 am75 °FPassing clouds.No wind83%29.89 "HgN/A
2:00 am75 °FPassing clouds.No wind83%29.89 "HgN/A
1:00 am77 °FPassing clouds.No wind79%29.92 "HgN/A
12:00 am77 °FPassing clouds.No wind79%29.92 "HgN/A
11:00 pm
Sat, Jan 21
77 °FScattered showers. Passing clouds.No wind79%29.92 "HgN/A
10:00 pm77 °FPassing clouds.No wind79%29.92 "HgN/A
Weather by CustomWeather, © 2017

See weather overviewHow to use our weather pages